Location: *
(51.9500°N, 0.2000°E)
Time: 11:41:02
(UTC+00:00)

Daily predictions for brighter satellites

Satellite Brightness Start Highest point End
(mag) Time Altitude Azimuth Time Altitude Azimuth Time Altitude Azimuth
CZ-4 R/B 1.4 18:05:49 10° SSE 18:09:37 56° ENE 18:13:28 10° N
Cosmos 2263 Rocket 2.6 18:04:18 10° NW 18:09:52 70° WSW 18:15:23 10° SSE
SL-16 R/B 2.9 18:05:15 10° S 18:10:17 34° ESE 18:15:21 10° NE
CSL-04 DEB 4.4 18:07:02 10° NNE 18:10:55 55° ESE 18:14:50 10° S
ERBS 3.0 18:10:19 10° SSW 18:13:25 36° SE 18:16:30 10° ENE
Cosmos 1515 4.1 18:11:38 10° N 18:15:17 39° ENE 18:18:54 10° SE
ARGOS 3.4 18:12:03 10° SE 18:17:18 52° ENE 18:22:34 10° N
Gbstr 26 Del rocket 3.4 18:13:11 10° WSW 18:17:25 63° SSE 18:22:36 10° ENE
SKYMED 2 3.5 18:14:38 10° NNE 18:19:02 79° ESE 18:23:22 10° SSW
USA 307 2.9 18:14:44 10° WSW 18:19:03 90° SE 18:23:21 10° ENE
H-2A R/B 2.7 18:15:52 10° N 18:19:54 58° WNW 18:23:56 10° SSW
Cosmos 2084 Rocket 3.5 18:16:01 10° NW 18:20:19 69° NE 18:24:46 10° SE
Cosmos 1331 Rocket 4.2 18:15:33 10° SSW 18:20:50 81° WNW 18:26:07 10° NNE
SL-4 R/B 1.6 18:17:57 10° W 18:21:36 87° S 18:25:01 10° E
USA 306 2.9 18:18:35 10° WSW 18:22:52 87° NNW 18:27:10 10° ENE
SJ-11-01 4.3 18:19:16 10° SSE 18:23:55 67° ENE 18:28:36 10° N
Cosmos 1805 Rocket 3.9 18:21:03 10° SSW 18:25:26 73° WNW 18:29:53 10° N
CZ-2C R/B 3.4 18:20:39 10° NNE 18:25:31 31° E 18:30:15 10° SSE
Cosmos 1470 Rocket 4.3 18:21:58 10° SSE 18:25:53 31° E 18:29:48 10° NNE
Meteor 1-20 Rocket 4.2 18:21:19 10° S 18:26:38 58° E 18:32:02 10° NNE
Cosmos 1689 Rocket 2.9 18:24:29 10° NE 18:27:01 27° E 18:29:32 10° SSE
SL-08 RB Rocket 4.1 18:22:53 10° SE 18:27:08 42° ENE 18:31:27 10° N
USA 308 2.9 18:25:18 10° WSW 18:29:35 85° NNW 18:33:47 11° ENE
Okean O Rocket 4.1 18:26:52 10° SSW 18:30:35 28° W 18:34:21 10° NW
PSLV R/B 4.1 18:28:22 10° NNE 18:32:21 47° E 18:36:17 10° S
Cosmos 1486 Rocket 4.0 18:28:42 10° NNW 18:34:01 87° ENE 18:39:19 10° SSE
SAR-Lupe-4 4.1 18:31:22 10° NNE 18:34:42 35° E 18:38:02 10° SSE
Cosmos 968 Rocket 3.6 18:29:31 10° NNW 18:34:49 84° WSW 18:40:06 10° SSE
Cosmos 1703 Rocket 4.4 18:31:02 10° N 18:34:54 29° ENE 18:38:44 10° SE
APEX 4.4 18:36:47 10° NW 18:39:24 31° WSW 18:41:51 10° S
H-2A R/B 2.4 18:35:30 10° SSE 18:40:57 80° WSW 18:46:27 10° NNW
USA 234 4.1 18:37:11 10° ENE 18:42:41 28° SE 18:48:10 10° S
FALCON 9 DEB 3.0 18:39:42 10° W 18:42:54 75° N 18:45:16 17° ENE
SeaSat 1 3.0 18:39:56 10° NE 18:44:33 38° ESE 18:49:07 10° S
Aureole 2 Rocket 1.6 18:42:07 10° NNW 18:44:40 60° ENE 18:47:09 10° SE
Cosmos 1844 Rocket 2.7 18:39:50 10° NNW 18:45:22 60° NE 18:50:52 10° SE
Cosmos 1271 Rocket 3.9 18:42:20 10° NNW 18:45:56 45° W 18:49:32 10° S
Cosmos 1933 Rocket 4.2 18:42:59 10° SSE 18:46:52 33° E 18:50:49 10° NNE
Cosmos 1862 Rocket 3.6 18:42:51 10° N 18:47:22 89° ENE 18:51:52 10° S
CSL-04 Rocket 3.7 18:42:34 10° SSE 18:48:05 73° ENE 18:53:36 10° NNW
Cosmos 2242 Rocket 4.0 18:43:52 10° N 18:48:11 42° ENE 18:52:26 10° SE
CSL-04 Debris 4.1 18:42:46 10° SSE 18:48:12 78° ENE 18:53:42 10° NNW
OBJECT-B 2.3 18:47:22 17° E 18:48:14 19° ENE 18:50:37 10° NNE
Cosmos 1666 Rocket 3.6 18:43:58 10° S 18:48:18 86° WNW 18:52:39 10° N
ERS-2 2.2 18:44:44 10° NNE 18:48:20 54° ESE 18:51:55 10° S
Resurs 01 Rocket 3.3 18:49:22 14° ENE 18:50:25 15° NE 18:52:54 10° NNE
Cosmos 1666 3.9 18:49:47 10° SE 18:52:31 20° E 18:55:17 10° NE
Nadezhda 3 Rocket 4.0 18:46:50 10° N 18:53:14 84° E 18:59:37 10° S
Cosmos 1302 Rocket 4.1 18:48:33 10° SSW 18:53:45 82° WNW 18:59:01 10° NNE
Cosmos 1844 3.8 18:48:11 10° NNW 18:53:55 59° NE 18:59:35 10° SE
SAR-Lupe-1 4.0 18:50:26 10° NNE 18:54:01 59° ESE 18:57:34 10° S
Meteor 1-19 Rocket 4.4 18:48:34 10° NNW 18:54:36 88° W 19:00:26 10° S
FALCON 9 DEB 3.0 18:53:04 10° W 18:56:15 71° N 18:58:05 23° ENE
Cosmos 1932 4.5 18:49:58 10° SSW 18:56:25 73° SE 19:02:48 10° NE
Sich 1 4.3 18:54:17 10° SSW 18:58:31 45° WNW 19:02:49 10° N
Cosmos 1602 3.7 18:55:19 10° S 18:59:12 90° WNW 19:03:10 10° N
Cosmos 2278 Rocket 3.5 18:55:01 10° NNW 18:59:38 24° NE 19:02:28 17° ENE
Cosmos 1354 Rocket 3.9 18:54:37 10° NNW 18:59:55 75° ENE 19:05:09 10° SSE
Cosmos 2360 Rocket 2.6 18:55:52 10° S 19:01:02 38° ESE 19:06:14 10° NE
Cosmos 2154 Rocket 3.9 18:55:41 10° S 19:01:52 76° E 19:08:05 10° NNE
Cosmos 2074 Rocket 4.3 18:56:41 10° SSW 19:02:56 75° W 19:09:14 10° N
Meteor 2-4 Rocket 3.8 18:57:29 10° N 19:03:17 69° ENE 19:09:11 10° SSE
YAOGAN 1 3.6 19:00:16 10° S 19:04:27 49° W 19:08:42 10° NNW
FALCON 9 DEB 3.4 19:02:51 10° WNW 19:06:14 59° SSW 19:08:06 24° SE
Cosmos 1295 Rocket 4.4 19:00:14 10° S 19:06:26 70° E 19:12:36 10° NNE
Cosmos 1610 Rocket 4.4 19:00:23 10° S 19:06:35 81° E 19:12:54 10° NNE
COSMO-SKYMED 1 4.1 19:02:58 10° N 19:07:01 38° WNW 19:11:02 10° SW
Cosmos 2333 Rocket 3.3 19:03:54 10° SSE 19:08:00 21° E 19:08:26 21° E
GP-B 3.1 19:03:42 10° SSE 19:08:03 59° E 19:12:26 10° N
Cosmos 1461 3.4 19:04:54 10° SW 19:09:39 75° NW 19:14:24 10° NE
Cosmos 1777 Rocket 4.3 19:05:27 10° NNW 19:10:33 47° ENE 19:13:54 20° ESE
Cosmos 1503 Rocket 4.1 19:05:32 10° NNW 19:10:46 82° WSW 19:15:56 10° SSE
Cosmos 1500 3.1 19:07:15 10° S 19:10:55 59° E 19:14:37 10° NNE
Abrixas rocket 2.5 19:10:47 10° WSW 19:13:06 32° S 19:13:15 32° SSE
Cosmos 1980 Rocket 3.7 19:11:57 10° WSW 19:17:11 36° NW 19:22:27 10° NNE
Helios 1A Rocket 3.6 19:13:34 10° S 19:17:33 55° W 19:21:33 10° NNW
Resurs 1-3 4.2 19:17:59 28° ESE 19:19:25 35° ENE 19:23:26 10° N
Cosmos 1943 Rocket 4.2 19:20:01 10° N 19:22:54 14° NNE 19:25:32 11° NE
Ariane Rocket 3.1 19:19:27 17° SE 19:23:17 54° ENE 19:28:16 10° N
SJ 16-02 2.5 19:20:21 10° N 19:24:02 25° NE 19:24:29 25° ENE
Cosmos 1633 Rocket 4.2 19:21:04 10° SSW 19:25:20 47° WNW 19:29:39 10° N
CZ-4B R/B 4.2 19:23:10 10° NNW 19:25:21 18° WNW 19:27:31 10° WSW
Okean 1-7 2.9 19:22:37 10° N 19:27:02 79° E 19:31:23 10° SSE
FALCON 9 DEB 2.9 19:23:56 10° W 19:27:05 71° N 19:27:41 53° ENE
FALCON 9 DEB 3.0 19:24:25 10° W 19:27:37 70° N 19:28:14 51° ENE
Cosmos 2322 Rocket 2.2 19:24:31 10° SSW 19:30:09 87° WNW 19:35:50 10° NNE
USA 186 1.4 19:31:18 59° NNW 19:31:18 59° NNW 19:33:26 10° NNW
SJ-6B 2.8 19:28:27 19° SSE 19:31:16 72° ENE 19:35:20 10° N
MOS 1 4.3 19:27:32 15° SSE 19:32:20 65° ENE 19:37:58 10° NNW
Meteor 1-14 Rocket 4.2 19:28:57 10° SSW 19:34:31 86° WNW 19:40:06 10° NNE
SL-8 Rocket 4.0 19:29:44 10° S 19:35:50 59° E 19:41:55 10° NNE
Cosmos 962 Rocket 4.4 19:31:22 10° S 19:37:35 84° E 19:43:55 10° NNE
SME Rocket 4.4 19:28:57 10° NNE 19:37:44 57° E 19:43:22 10° S
Meteor 1-11 Rocket 4.0 19:32:51 10° SSE 19:38:14 44° E 19:43:31 10° NNE
Cosmos 1869 Rocket 3.7 19:39:35 36° SE 19:40:52 48° E 19:45:07 10° NNE
ATLAS 5 CENTAUR R/B 3.6 19:33:25 10° WSW 19:42:26 42° NNW 19:44:42 19° NNE
CZ-4 R/B 4.4 19:42:32 10° SW 19:45:00 16° W 19:47:31 10° NW
Cosmos 1339 Rocket 4.4 19:39:12 10° N 19:45:25 89° E 19:51:42 10° S
Meteor 1-13 Rocket 4.2 19:42:09 10° NNW 19:48:09 84° ENE 19:53:00 16° SSE
USA 305 3.1 19:44:09 10° W 19:48:25 65° N 19:49:23 48° ENE
Cosmos 2219 Rocket 3.4 19:43:50 10° S 19:56:15 - NE 19:46:09 23° SSE
ERBS 2.8 19:46:16 10° W 19:49:31 51° NNW 19:49:50 49° N
Cosmos 2366 rocket 4.0 19:44:01 10° S 19:50:13 62° E 19:56:30 10° NNE
IRS-1A Rocket 4.2 19:46:49 16° SSE 19:51:28 89° E 19:57:04 10° NNW
SL-16 R/B 3.0 19:48:40 10° SW 19:54:13 53° NW 19:59:47 10° NNE
Cosmos 1066 Rocket 4.1 19:49:32 10° N 19:55:14 71° ENE 19:57:55 33° SSE
Cosmos 2341 Rocket 4.0 19:49:31 10° S 19:55:50 84° W 20:02:10 10° N
ARIANE 5 R/B 4.2 19:58:36 22° NE 19:58:36 22° NE 20:00:56 10° N
USA 307 3.0 19:54:59 10° W 19:59:16 65° N 19:59:47 58° NE
ATLAS CENTAUR R/B 1.6 19:57:02 10° SW 19:59:42 46° SSW 19:59:42 46° SSW
SL-4 R/B 2.1 19:57:36 10° W 20:00:36 51° SW 20:00:36 51° SW
Cosmos 2221 Rocket 3.9 19:56:50 10° N 20:00:37 49° NE 20:00:37 49° NE
USA 306 3.0 19:58:48 10° W 20:03:03 66° N 20:03:25 62° NE
Cosmos 2369 Rocket 4.2 20:01:11 10° N 20:04:15 15° NNE 20:05:39 13° NE
Gbstr 26 Del rocket 3.3 19:59:35 10° W 20:04:19 90° S 20:05:32 56° E
Cosmos 2322 3.7 20:00:01 10° S 20:05:36 57° ESE 20:11:13 10° NE
CZ-2C R/B 3.5 20:00:42 10° N 20:06:03 51° WNW 20:11:15 10° SW
Cosmos 1727 Rocket 3.8 20:01:50 10° N 20:08:03 76° ENE 20:10:40 37° SSE
USA 308 3.0 20:05:33 10° W 20:09:49 67° N 20:09:54 66° NNE
Okean 3 3.5 20:06:03 10° NNW 20:10:18 75° W 20:11:00 59° SSW
ASTEX 1 3.3 20:08:05 10° N 20:13:01 86° W 20:15:59 24° S
Cosmos 2218 Rocket 4.0 20:09:28 10° S 20:15:54 89° WNW 20:22:21 10° N
Cosmos 1821 Rocket 4.5 20:17:53 41° ENE 20:17:53 41° ENE 20:22:34 10° NNE
Meteor 2-20 4.3 20:12:14 10° N 20:18:23 80° ENE 20:20:13 48° SSE
OBJECT-B 2.4 20:20:26 33° W 20:20:26 33° W 20:23:17 10° NNW
SeaSat 1 3.5 20:17:26 10° NNE 20:22:08 45° NW 20:26:50 10° WSW
BREEZE-M DEB (TANK) 3.0 20:19:49 10° W 20:22:09 54° SW 20:22:09 54° SW
Cosmos 1000 Rocket 4.5 20:16:46 10° N 20:22:59 61° ENE 20:23:31 58° E
Cosmos 1378 4.1 20:21:42 10° NNW 20:24:28 44° NW 20:24:28 44° NW
Resurs 01 Rocket 1.8 20:26:55 65° NNW 20:26:55 65° NNW 20:30:43 10° NNW
USA 234 3.1 20:24:20 46° ENE 20:26:25 75° SSE 20:32:58 10° SW
Cosmos 1666 4.0 20:24:20 10° SW 20:27:50 39° WNW 20:31:23 10° N
Cosmos 1844 Rocket 4.4 20:24:13 10° NW 20:28:56 29° WSW 20:33:33 10° SSW
Cosmos 1898 Rocket 4.1 20:29:38 10° NNW 20:33:47 44° NNE 20:33:47 44° NNE
Cosmos 2123 Rocket 4.4 20:28:51 10° N 20:34:13 46° NE 20:34:13 46° NE
Cosmos 2333 4.1 20:30:30 10° SSW 20:36:11 84° WNW 20:41:57 10° NNE
Terra 3.8 20:38:41 18° NNE 20:38:41 18° NNE 20:40:22 10° N
Spot 2 Rocket 4.2 20:39:03 42° NNE 20:39:03 42° NNE 20:42:44 10° N
USA 281 4.1 20:38:27 32° NE 20:38:45 32° NE 20:44:24 10° NNW
ERS-1 Rocket 4.3 20:44:22 29° NNE 20:44:22 29° NNE 20:47:12 10° N
Cosmos 2278 Rocket 2.1 20:38:48 10° NNW 20:44:20 84° N 20:44:20 84° N
Cosmos 2360 Rocket 3.1 20:39:29 10° SW 20:44:57 48° NW 20:50:28 10° NNE
USA 245 4.3 20:46:51 69° NNE 20:46:51 69° NNE 20:52:28 10° NNW
SPOT 3 Rocket 3.9 20:49:36 59° WSW 20:49:56 61° WSW 20:55:08 10° NNW
Cosmos 2333 Rocket 2.3 20:45:55 10° SSW 20:56:43 14° NNE 20:57:23 10° NNE
SPOT 1/Viking Rocket 4.1 21:01:15 52° NNW 21:01:15 52° NNW 21:05:08 10° NNW
NOSS 3-3 (A) 4.4 20:53:18 10° NW 21:00:40 81° SW 21:01:45 69° SSE
NOSS 3-3 (C) 4.4 20:53:24 10° NW 21:00:46 81° SW 21:01:50 69° SSE
SJ 16-02 2.8 20:58:36 10° NNW 21:01:29 36° NW 21:01:29 36° NW
Cosmos 1943 Rocket 3.5 21:03:16 10° NNW 21:07:04 31° NNE 21:07:04 31° NNE
Cosmos 2322 Rocket 4.3 21:10:30 10° W 21:15:01 24° NW 21:19:33 10° NNE
Cosmos 2219 Rocket 4.4 21:27:13 10° SW 21:37:51 11° NNE 21:38:09 10° NNE
Cosmos 2369 Rocket 3.9 21:44:40 10° NNW 21:47:26 26° N 21:47:26 26° N
USA 234 4.2 22:11:41 41° WNW 22:11:41 41° WNW 22:15:52 10° W
Terra 4.4 22:17:33 17° NNW 22:17:33 17° NNW 22:18:37 10° NNW
USA 281 4.2 22:25:19 41° NW 22:25:19 41° NW 22:29:23 10° NNW
Cosmos 2333 Rocket 4.4 22:32:16 10° W 22:38:27 21° N 22:41:22 10° NNE
Cosmos 1943 Rocket 4.5 22:46:58 10° NW 22:48:35 19° NW 22:48:35 19° NW
